Wind_Speed
19 13 7 2 3 4 2 6 8 7 6 2 4 12 7 4 2 5 19 32 35 32 25 19 17 14 15 17 15 13 12 12 12 13 14 13 13 12 12 12 11 9 8 7 6 6 4 4 3
22 18 8 3 2 2 5 6 13 18 13 8 2 14 12 6 6 8 18 28 32 29 24 20 18 15 15 16 13 12 12 12 11 11 12 13 12 11 10 8 8 7 7 7 6 5 4 3 2
23 11 1 4 3 5 5 11 8 7 10 10 4 18 11 5 9 9 28 27 30 24 22 20 17 16 15 14 13 12 11 11 10 10 11 11 11 10 9 7 6 6 5 5 5 3 2 1 1
10 2 4 1 9 18 3 7 7 4 7 8 2 11 18 45 41 21 29 23 23 19 21 19 16 14 13 13 11 10 10 9 9 9 9 9 9 10 9 9 7 5 4 2 1 1 1 2 2
11 2 3 5 14 11 5 5 8 6 2 21 19 15 10 45 52 17 24 26 22 18 18 17 16 15 13 12 10 9 8 8 8 7 7 7 8 9 10 9 8 6 5 4 4 3 3 4 5
4 2 5 7 12 8 6 8 6 4 16 16 17 15 9 26 37 46 22 26 20 21 17 16 14 13 13 11 9 8 8 6 5 5 5 6 7 8 9 9 8 7 6 6 5 5 5 5 6
4 3 8 11 19 9 5 1 7 13 16 11 8 8 5 12 17 27 32 24 21 20 17 13 12 11 11 10 9 7 7 6 5 5 6 7 7 8 9 9 9 9 8 7 7 6 6 7 9
3 1 10 14 11 12 7 10 11 11 6 7 5 6 6 2 12 17 40 35 23 18 14 12 11 9 9 9 8 6 5 4 4 6 7 8 9 9 9 9 9 9 9 9 9 8 8 8 9
6 3 7 17 14 2 8 10 9 10 11 7 6 10 16 16 15 22 40 45 36 29 29 23 7 6 8 6 6 5 2 1 4 7 8 8 9 10 9 9 9 9 10 10 10 9 7 8 10
4 2 11 17 12 7 3 7 13 9 14 11 7 11 26 18 15 23 27 28 31 31 21 23 21 19 5 4 7 7 4 4 7 9 9 12 10 12 14 11 10 11 11 10 9 7 5 6 6
9 8 16 19 10 9 5 10 5 7 11 15 23 17 15 13 8 24 14 23 24 20 15 10 11 9 7 6 2 1 2 10 11 12 15 15 14 18 20 17 14 15 13 12 5 7 7 8 5
6 13 13 15 10 6 4 5 10 8 10 26 27 24 17 7 8 13 12 10 12 5 11 6 3 5 3 7 3 4 3 11 28 29 23 22 17 16 16 14 11 14 12 7 4 4 6 6 8
7 11 9 8 8 9 6 5 9 28 29 24 20 21 16 17 18 20 11 7 3 3 5 11 14 10 4 5 2 1 5 15 30 14 27 33 26 9 6 8 7 3 5 4 5 2 4 9 7
6 6 3 6 10 5 5 1 8 23 27 25 25 21 20 20 22 23 21 14 13 10 7 5 5 6 8 9 2 2 10 16 12 17 16 19 39 25 14 16 17 14 10 5 3 3 4 7 6
7 6 7 7 7 1 0 5 14 25 28 25 24 20 19 19 24 21 19 19 16 8 2 6 11 12 12 12 3 6 12 10 17 8 18 15 28 34 16 18 17 8 6 4 5 2 4 4 5
3 5 5 11 8 4 10 4 12 22 27 23 22 18 17 16 19 18 19 21 20 16 15 12 14 10 2 3 6 11 13 11 20 19 17 14 0 7 13 21 15 10 7 8 8 4 4 3 6
5 8 9 11 12 6 9 8 20 20 23 19 16 16 16 14 17 19 18 20 21 21 21 19 18 18 14 10 11 13 16 16 16 19 15 8 2 2 5 9 10 11 12 12 11 7 7 6 6
5 6 7 8 6 7 12 10 10 17 23 17 15 15 15 14 12 19 20 19 22 24 24 26 23 19 17 12 5 16 13 17 19 20 19 18 18 19 15 13 16 15 12 13 14 11 6 6 8
6 7 9 5 9 10 13 9 8 17 19 18 15 13 13 12 16 20 21 19 21 24 27 27 28 24 23 23 21 23 18 20 21 15 21 19 21 18 18 19 20 19 17 17 16 16 15 15 15
8 7 9 4 7 7 11 8 9 13 11 17 16 13 12 8 8 15 17 18 20 21 22 24 24 26 23 23 20 15 17 13 17 19 21 25 22 21 26 23 19 17 18 19 18 16 15 13 12
5 5 7 6 3 1 10 4 12 12 17 16 14 13 10 8 8 7 14 14 16 20 21 22 25 23 26 26 24 22 19 23 28 29 30 25 22 23 24 22 23 23 21 22 23 22 21 15 19
2 8 9 6 5 2 5 4 6 11 13 13 13 11 11 9 7 9 13 15 16 19 20 20 22 25 24 25 24 23 20 18 22 25 24 22 23 24 27 27 24 22 21 19 22 23 22 22 16
4 9 7 6 8 6 10 5 2 8 9 12 10 11 8 8 8 7 13 18 19 18 21 22 23 25 24 25 25 25 26 23 24 25 28 31 31 25 26 30 31 28 27 25 24 23 24 21 19
6 4 6 5 2 3 10 4 5 5 8 8 10 10 9 8 7 12 12 17 16 18 19 23 22 24 25 25 25 25 24 25 23 26 26 29 26 28 29 29 28 27 25 25 23 23 23 23 22
5 4 3 4 3 6 6 7 1 10 11 13 12 11 9 8 8 8 9 12 17 21 21 21 23 23 25 25 27 29 28 26 22 24 23 22 27 27 27 29 29 30 28 27 25 26 23 21 21
6 2 3 3 3 4 6 3 2 4 9 7 12 9 7 7 6 7 9 12 21 21 22 22 21 21 22 24 25 24 23 22 21 21 22 22 23 24 25 25 24 24 27 27 21 23 17 19 19
6 4 3 2 5 5 5 3 3 6 9 12 10 9 7 3 6 6 9 21 23 24 23 23 22 21 22 23 23 22 20 20 19 19 18 19 20 22 22 22 22 20 21 24 19 17 17 17 17
8 5 5 4 2 3 2 3 6 7 7 7 8 7 7 6 4 3 16 24 25 24 24 22 20 19 20 18 18 17 16 17 17 20 20 21 22 22 22 21 20 20 18 20 21 22 22 22 20
5 4 4 3 2 1 2 2 6 13 11 11 10 9 8 5 6 8 18 22 24 23 22 20 19 18 17 18 19 19 19 18 16 17 19 19 19 20 21 17 18 18 21 18 21 21 22 21 18
4 4 1 5 5 1 3 3 4 13 12 11 10 11 8 9 8 14 20 22 24 21 20 17 15 15 17 19 18 19 20 16 19 18 18 19 21 18 15 16 15 16 18 16 20 19 19 18 18
Wind_Direction
319 328 294 251 46 97 229 222 130 192 248 289 25 89 108 121 182 151 122 130 132 131 130 124 117 114 118 123 125 126 123 122 121 123 130 133 131 129 125 119 118 120 122 125 126 121 113 102 102
321 323 206 267 136 179 251 232 193 214 217 287 85 88 70 27 51 88 114 129 125 123 125 123 121 117 117 121 125 127 128 129 125 124 135 142 145 141 140 131 124 125 128 126 120 116 111 110 120
318 292 83 188 177 233 216 227 242 226 245 291 52 78 40 29 39 70 119 117 116 119 124 120 119 118 118 124 131 134 136 138 135 135 140 150 156 159 161 157 147 137 134 135 132 126 124 148 178
290 24 312 165 271 287 202 226 243 38 322 51 29 41 7 348 346 117 111 103 111 118 123 118 115 113 113 116 123 130 137 141 144 145 149 155 166 172 176 174 171 172 170 183 211 215 224 254 263
295 269 288 299 286 260 265 157 107 124 233 51 56 53 65 337 342 86 99 114 111 109 108 107 107 107 105 106 113 120 134 144 150 154 161 168 174 180 183 185 187 197 217 225 246 254 259 263 270
321 48 335 299 300 311 343 87 94 98 48 42 75 83 60 358 351 13 116 125 109 112 107 104 103 103 105 110 114 122 129 138 149 158 165 174 181 186 192 196 200 208 226 245 251 261 270 278 283
238 320 274 295 295 299 284 122 113 76 72 48 119 95 160 112 6 4 75 89 98 107 110 99 102 106 107 108 110 119 129 143 159 175 179 186 194 197 200 206 213 219 228 240 248 260 269 282 293
256 69 298 282 297 319 4 22 110 92 83 103 95 133 182 258 49 58 69 61 86 91 93 99 110 114 111 113 112 120 133 151 186 199 201 203 203 204 209 213 223 228 233 241 253 259 269 287 305
289 338 274 273 285 325 7 76 59 107 115 83 125 170 149 144 117 82 65 57 60 71 67 69 75 96 84 104 102 94 93 243 251 252 242 232 222 217 215 220 227 232 246 250 258 267 277 295 306
191 209 255 264 280 323 329 23 119 121 101 86 102 106 123 135 111 79 79 72 53 53 52 50 66 80 109 54 86 85 57 1 319 295 282 276 250 241 241 236 238 243 250 254 256 268 271 277 307
243 223 256 273 278 306 3 14 43 134 122 158 138 145 167 165 125 92 105 98 98 115 82 41 69 83 71 33 67 98 117 302 303 287 275 279 273 274 254 256 259 245 244 253 239 250 230 224 177
210 241 242 265 284 349 3 29 355 45 45 137 141 148 162 160 73 46 19 64 147 165 97 48 340 7 21 29 357 28 85 29 358 320 320 275 264 258 246 266 258 261 259 259 222 188 203 218 237
232 248 252 267 294 304 85 61 78 83 93 122 106 102 84 68 62 54 75 67 32 317 336 294 320 303 295 0 27 138 60 48 31 359 334 307 269 269 266 298 322 251 254 254 218 195 241 275 264
249 279 285 331 301 309 44 86 87 96 99 89 85 79 69 62 52 51 39 41 3 324 310 296 234 238 292 299 355 336 359 23 8 44 55 358 332 5 1 331 328 317 283 276 338 317 262 283 300
301 356 343 299 275 208 238 51 66 110 95 92 86 83 75 67 60 53 39 32 20 299 310 330 316 279 260 249 282 13 5 14 54 64 127 88 345 8 27 328 325 335 331 303 300 311 239 252 311
327 320 260 257 235 153 95 66 92 105 99 98 95 90 83 80 79 70 57 50 37 53 53 54 62 58 65 329 343 6 31 49 60 80 84 73 181 284 280 277 266 299 319 328 320 314 164 189 235
273 236 231 271 170 148 119 111 79 99 97 98 99 99 92 83 74 73 63 54 46 48 46 46 51 53 47 41 47 50 42 50 45 47 30 30 118 341 286 310 342 341 332 345 344 308 292 271 273
278 254 317 137 184 136 90 85 82 111 105 101 94 94 93 94 90 80 71 62 59 54 56 53 49 56 52 58 49 26 42 40 49 62 55 49 34 18 10 350 352 351 358 358 349 345 322 303 306
16 352 335 86 140 106 120 117 99 122 112 111 100 92 90 92 98 95 82 67 59 54 52 50 48 44 49 40 36 33 37 42 41 33 23 33 25 19 15 5 356 346 349 349 352 347 326 317 318
3 332 308 337 138 122 139 136 103 76 94 112 113 111 112 104 92 89 91 77 66 57 52 49 48 40 38 38 37 31 29 14 21 18 7 18 17 23 24 21 18 10 4 1 354 356 352 328 330
280 253 283 274 340 248 107 107 111 97 96 96 93 100 94 115 118 111 97 90 85 69 55 50 47 43 35 31 28 23 18 11 11 12 3 17 17 15 15 19 16 11 14 7 2 358 358 347 339
270 354 11 355 33 239 139 242 115 127 112 112 123 109 110 102 91 88 93 86 87 73 63 52 41 36 39 33 37 36 32 16 11 9 11 4 7 11 2 2 5 2 1 4 0 352 351 351 341
111 28 356 340 335 35 314 79 218 138 133 135 123 114 111 108 105 98 85 87 74 65 57 43 33 33 36 38 37 32 27 24 14 8 357 350 349 354 346 347 349 350 342 339 338 342 346 339 335
19 6 339 326 289 318 255 245 216 180 180 163 122 126 114 109 104 75 76 85 77 70 57 41 35 33 32 30 30 34 32 20 13 5 2 3 358 355 350 354 355 352 351 349 340 333 332 333 327
19 12 322 334 350 225 251 109 233 220 135 131 133 118 112 113 103 102 68 82 82 73 58 46 36 30 28 29 25 17 12 9 10 3 359 354 355 352 356 354 353 354 353 351 346 340 331 330 330
338 152 170 257 273 263 12 54 343 40 131 129 101 102 88 90 107 100 94 77 75 67 57 46 35 36 31 24 17 11 9 9 5 2 359 356 347 344 348 351 348 352 353 349 341 332 323 323 331
299 328 242 13 320 21 120 137 29 73 71 89 99 104 121 131 116 147 125 88 72 65 56 45 37 31 25 15 9 6 7 4 3 360 354 347 348 346 342 347 349 353 352 0 1 356 348 349 343
158 248 15 355 349 306 163 158 177 158 148 137 122 138 179 186 186 154 103 84 70 60 49 38 30 29 16 8 8 5 2 5 2 4 2 0 357 357 357 351 355 356 360 1 15 23 24 20 21
4 355 357 107 104 185 351 277 185 164 173 165 172 182 179 190 150 109 93 81 69 57 42 32 21 11 16 16 12 9 5 6 8 360 357 356 356 356 2 4 4 0 360 6 14 15 15 23 40
47 314 49 109 324 22 143 307 55 142 170 162 156 133 126 97 87 96 86 74 65 57 40 23 13 19 22 11 12 8 356 4 12 11 11 12 10 13 8 5 4 7 12 12 2 16 32 47 45
Height
777 778 779 781 808 802 822 812 794 792 785 735 728 738 750 747 758 787 764 764 762 766 772 777 780 784 786 787 790 794 796 797 798 800 801 804 806 807 808 809 809 810 811 811 811 811 812 813 814
775 773 778 780 811 823 814 781 780 764 743 736 730 740 752 767 752 763 769 769 765 769 774 778 781 785 788 790 793 797 798 799 801 802 803 805 807 809 811 811 811 811 811 811 812 812 812 812 813
773 773 782 792 804 816 805 777 756 741 735 745 745 739 755 781 769 772 780 776 768 772 777 780 784 787 790 793 796 798 800 801 802 804 805 807 808 809 810 812 813 813 813 812 811 812 812 812 813
774 773 775 799 809 779 763 758 752 748 737 746 743 788 792 797 797 774 779 779 777 781 781 783 788 792 795 797 801 803 804 804 805 805 807 807 809 810 810 812 813 814 813 814 814 812 812 813 813
772 774 802 803 792 764 743 741 743 755 757 763 757 809 797 804 804 791 782 786 786 789 791 791 793 795 798 801 804 806 807 807 809 809 810 810 810 811 811 811 812 813 814 813 813 813 813 813 813
786 779 814 815 787 758 743 741 745 752 764 777 785 801 823 816 809 796 788 789 791 791 795 797 798 799 800 802 805 807 809 811 812 812 812 812 812 811 811 811 812 812 813 814 813 813 813 813 813
789 800 811 801 783 771 747 725 750 764 771 786 781 810 823 798 810 809 799 800 797 795 798 800 800 802 803 804 807 810 810 810 811 812 810 809 809 808 808 808 809 809 809 811 811 812 812 812 813
779 791 806 789 788 783 746 745 753 759 779 775 779 804 811 803 807 812 799 800 802 804 805 801 801 804 806 807 808 811 812 812 812 810 808 806 805 805 806 806 807 806 805 806 807 808 811 812 812
770 808 816 792 785 772 745 759 751 758 766 778 784 785 777 800 810 806 795 798 805 810 811 810 809 811 810 810 810 812 815 814 812 812 810 808 807 806 805 804 804 804 804 803 805 807 808 810 811
786 810 799 765 762 767 748 744 752 766 773 791 790 791 790 801 803 796 791 798 809 810 810 811 810 810 816 816 812 813 815 814 813 813 814 813 811 809 806 802 800 801 802 801 802 805 805 806 806
778 799 771 759 754 750 751 748 739 755 777 776 791 800 804 800 794 792 789 795 801 805 806 810 807 808 807 815 819 816 814 815 814 816 815 813 810 813 813 810 806 804 802 803 798 801 801 801 801
784 768 764 752 746 750 751 745 756 752 761 782 777 789 803 806 801 796 799 796 805 806 802 807 803 805 809 811 817 821 817 813 815 818 823 817 808 808 809 811 807 806 806 805 802 797 799 798 799
771 764 753 747 746 750 744 753 766 776 776 781 785 788 795 794 800 802 803 805 807 806 807 807 803 807 809 813 816 818 816 814 819 819 817 811 803 804 809 813 809 804 805 809 801 797 796 798 797
753 753 750 747 749 749 757 756 758 787 779 787 790 799 799 803 809 808 811 811 810 808 810 809 811 814 816 817 818 817 817 814 814 815 816 823 814 788 808 814 811 804 805 806 802 798 793 796 795
748 765 757 754 753 752 749 772 779 784 785 797 800 806 812 817 816 819 824 821 816 813 815 813 816 816 816 817 816 814 812 812 814 812 805 808 821 813 815 819 811 807 807 806 801 795 794 792 793
762 765 792 763 754 749 761 799 781 782 784 801 808 815 821 823 827 829 829 830 825 820 816 815 815 816 817 816 813 813 813 814 812 817 812 804 819 823 821 822 814 806 803 799 797 797 795 792 790
777 803 790 771 750 755 768 796 788 784 788 805 812 816 822 828 831 832 831 830 829 826 822 818 815 814 814 815 815 814 814 816 816 811 818 818 816 815 813 813 808 805 802 795 793 790 793 792 788
793 791 776 774 761 757 783 795 787 791 792 805 811 817 822 828 834 835 835 834 833 828 827 824 823 819 817 815 817 817 812 813 814 815 818 817 815 813 809 808 805 803 798 794 792 790 792 787 783
767 775 780 759 752 773 786 794 792 797 797 809 814 821 827 831 833 834 836 836 833 830 829 829 826 825 819 818 818 816 813 812 813 813 814 814 815 814 810 807 805 801 796 793 791 789 789 785 781
770 779 784 765 755 765 786 797 795 797 803 808 814 821 827 833 836 834 835 835 832 834 834 834 833 830 827 823 821 820 819 818 816 813 812 813 811 810 807 804 801 796 794 792 790 789 786 784 782
773 781 781 780 763 759 780 804 806 806 807 809 814 821 828 832 835 835 833 836 836 835 837 836 835 835 830 826 822 818 817 815 812 811 811 810 811 809 806 804 802 799 796 793 794 791 789 786 781
786 765 767 771 785 812 775 834 823 812 815 815 816 822 826 831 835 833 833 835 838 839 839 840 838 836 834 831 828 826 825 823 821 816 814 813 811 809 805 803 801 800 798 794 793 794 790 786 783
782 763 773 775 793 799 793 823 824 813 823 820 821 824 830 833 836 836 836 838 838 838 838 839 839 837 836 834 832 830 827 824 821 817 815 814 810 807 806 802 798 797 797 793 792 790 788 786 783
759 770 779 783 798 831 803 805 834 828 824 826 822 827 831 834 836 836 838 840 841 840 841 841 840 839 837 836 835 832 831 827 824 822 818 814 812 806 805 802 796 796 794 791 790 789 786 785 781
771 794 834 837 835 838 788 806 817 805 808 817 824 829 832 833 836 838 840 842 842 843 844 844 843 842 839 836 833 831 829 826 825 822 820 818 811 809 804 797 796 792 792 790 785 782 784 784 782
787 793 831 838 843 828 789 827 840 819 813 816 824 832 833 836 837 839 841 843 845 845 846 847 846 845 844 841 838 836 832 829 826 824 821 818 816 811 806 803 801 798 796 791 787 786 784 783 778
791 809 783 809 804 826 834 829 823 819 822 824 830 834 838 837 839 839 843 844 846 847 848 848 848 848 846 844 841 838 835 831 829 826 824 821 817 813 810 807 804 802 798 795 792 787 783 778 775
781 778 817 825 837 836 830 824 834 830 829 827 831 833 835 836 839 842 845 846 849 850 850 850 851 850 848 846 843 840 837 834 830 827 824 820 817 813 810 807 805 803 801 797 791 786 783 779 776
798 805 804 812 820 841 848 837 806 815 819 825 829 830 833 836 840 843 845 849 850 851 852 853 852 851 849 847 843 840 837 833 830 827 823 820 817 814 810 808 805 802 799 795 791 788 785 782 780
781 793 799 843 834 830 837 849 801 807 810 813 822 827 833 833 836 842 846 849 851 853 853 855 854 852 850 847 844 840 836 834 830 827 824 821 817 814 812 808 805 803 799 796 793 790 787 784 782